Location: Noordwijk
(52.2400°N, 4.4500°E)
Time: 22:04:48
(UTC+00:00)

FO-29 - Pass Details

Date: 04 December 2022
Orbit: 799 x 1322 km, 98.5° (Epoch: 01 February)

Event Time Altitude Azimuth Distance (km) Brightness Sun altitude
Rises 03:41:22 0° 26° (NNE) 3,918 13.1 -34.2°
Reaches altitude 10° 03:47:05 10° 65° (ENE) 2,790 12.6 -33.4°
Maximum altitude 03:48:07 10° 75° (ENE) 2,729 12.6 -33.2°
Drops below altitude 10° 03:49:07 10° 85° (E) 2,728 12.7 -33.1°
Sets 03:54:16 0° 125° (SE) 3,523 13.1 -32.3°
